EW8930 Weather Reports


time (UTC)temp
C
wind
direction
speed
KPH
gust
KPH
rain 1hr
cm
rain 24hr
cm
rain mn
cm
humidity
%
barometer
mb
20260503233056 12 267 29.0 41.8 0.00 0.00 0.00 62 1011.9
20260503231601 13 269 20.9 38.6 0.00 0.00 0.00 60 1011.8
20260503230108 14 284 32.2 48.3 0.00 0.00 0.00 55 1011.7
20260503224559 15 244 22.5 38.6 0.00 0.00 0.00 39 1011.4
20260503223054 16 240 20.9 40.2 0.00 0.00 0.00 40 1011.5
20260503221553 16 250 27.4 40.2 0.00 0.00 0.00 39 1011.5
20260503220052 16 240 25.7 37.0 0.00 0.00 0.00 39 1011.5
20260503214550 16 236 30.6 43.5 0.00 0.00 0.00 38 1011.5
20260503213056 16 257 27.4 48.3 0.00 0.00 0.00 38 1011.6
20260503211606 16 211 27.4 40.2 0.00 0.00 0.00 38 1011.7
20260503210049 16 238 29.0 49.9 0.00 0.00 0.00 36 1011.9
20260503204546 16 240 22.5 37.0 0.00 0.00 0.00 37 1011.9
20260503203049 17 217 20.9 43.5 0.00 0.00 0.00 36 1012.1
20260503201544 16 245 29.0 46.7 0.00 0.00 0.00 37 1012.2
20260503200054 16 241 29.0 40.2 0.00 0.00 0.00 36 1012.2
20260503194539 16 249 25.7 38.6 0.00 0.00 0.00 37 1012.5
20260503193042 16 250 25.7 40.2 0.00 0.00 0.00 36 1012.6
20260503191542 16 227 24.1 40.2 0.00 0.00 0.00 37 1013.0
20260503190041 16 223 25.7 45.1 0.00 0.00 0.00 37 1013.1
20260503184540 16 227 24.1 43.5 0.00 0.00 0.00 36 1013.4
20260503183030 16 233 25.7 40.2 0.00 0.00 0.00 36 1013.5
20260503181527 16 240 25.7 40.2 0.00 0.00 0.00 38 1013.6
20260503180042 16 238 24.1 41.8 0.00 0.00 0.00 40 1013.8
20260503174529 16 279 27.4 38.6 0.00 0.00 0.00 40 1014.1
20260503173029 16 234 29.0 40.2 0.00 0.00 0.00 38 1014.2
20260503171518 16 233 27.4 37.0 0.00 0.00 0.00 40 1014.3
20260503150106 12 279 19.3 32.2 0.00 0.00 0.00 58 1016.0
20260503120106 5 236 9.7 16.1 0.00 0.00 0.00 70 1016.6
20260503081555 2 238 1.6 8.0 0.00 0.00 0.00 78 1016.7
20260503080106 2 229 3.2 9.7 0.00 0.00 0.00 78 1016.8
20260503071557 2 222 3.2 8.0 0.00 0.00 0.00 77 1016.8
20260503054533 3 221 4.8 8.0 0.00 0.00 0.00 72 1017.1
20260503053032 4 208 4.8 9.7 0.00 0.00 0.00 72 1017.2
20260503051535 4 244 4.8 9.7 0.00 0.00 0.00 72 1017.3
20260503050027 4 213 6.4 9.7 0.00 0.00 0.00 72 1017.2
20260503044527 4 223 4.8 8.0 0.00 0.00 0.00 73 1017.3
20260503043021 4 220 4.8 8.0 0.00 0.00 0.00 71 1017.2
20260503041519 5 223 3.2 6.4 0.00 0.00 0.00 70 1017.3
20260503040015 5 229 4.8 6.4 0.00 0.00 0.00 70 1017.4
20260503034515 5 225 4.8 8.0 0.00 0.00 0.00 68 1017.4
20260503033026 6 226 4.8 8.0 0.00 0.00 0.00 67 1017.3
20260503031514 6 238 4.8 8.0 0.00 0.00 0.00 67 1017.5
20260503030026 6 205 1.6 4.8 0.00 0.00 0.00 66 1017.5
20260503024512 6 203 0.0 4.8 0.00 0.00 0.00 65 1017.6
20260503023012 6 229 3.2 6.4 0.00 0.00 0.00 64 1017.6
20260503021512 6 202 0.0 3.2 0.00 0.00 0.00 62 1017.6
20260503020011 6 223 1.6 4.8 0.00 0.00 0.00 62 1017.6
20260503014510 6 220 3.2 4.8 0.00 0.00 0.00 62 1017.5
20260503013010 6 219 1.6 3.2 0.00 0.00 0.00 61 1017.5
20260503011508 7 224 1.6 3.2 0.00 0.00 0.00 60 1017.4
20260503010007 7 221 1.6 3.2 0.00 0.00 0.00 56 1017.4
20260503004514 7 283 0.0 1.6 0.00 0.03 0.00 59 1017.3
20260503003008 7 284 0.0 3.2 0.00 0.03 0.00 62 1017.3
20260503001506 7 283 3.2 9.7 0.00 0.03 0.00 61 1017.3
20260503000012 7 279 4.8 9.7 0.00 0.03 0.00 55 1017.2
20260502234505 7 269 3.2 8.0 0.00 0.03 0.00 54 1017.2